Simultaneous Nadir Overpasses (SNOs) Predictions

Prediction of SNOs between AQUA and METOP-B Satellite Orbit:

Table of predicted SNOs for the next 14.0 days since TLE Epoch: 12/28/2018
Index Date (AQUA) Time (AQUA) Lat,Lon (AQUA) SZA (AQUA ) Date (METOP-B) Time (METOP-B) Lat,Lon (METOP-B) SZA (METOP-B ) Distance(km) Time Diff (sec)
1 12/30/2018 12:13:04 -73.88, 170.83 82.97 12/30/2018 12:12:31 -73.85, 170.82 82.99 3.02 33
2 12/30/2018 13:02:33 73.93, -21.65 97.09 12/30/2018 13:03:09 73.94, -21.63 97.09 0.94 36
3 01/02/2019 07:47:19 -73.89,-122.76 83.17 01/02/2019 07:46:54 -73.90,-122.67 83.16 2.91 25
4 01/02/2019 08:36:48 73.95, 44.75 96.89 01/02/2019 08:37:33 73.93, 44.74 96.87 2.24 45
5 01/05/2019 02:31:57 73.24, 137.43 95.88 01/05/2019 02:30:51 73.18, 134.77 95.92 85.81 66
6 01/05/2019 03:21:34 -73.86, -56.25 83.47 01/05/2019 03:21:19 -73.89, -56.28 83.44 3.30 15
7 01/05/2019 04:11:04 73.97, 111.15 96.64 01/05/2019 04:11:57 73.96, 111.24 96.63 2.69 53
8 01/07/2019 22:06:19 73.58,-156.84 95.91 01/07/2019 22:05:09 73.52,-158.07 95.90 39.34 70
9 01/07/2019 22:55:50 -73.88, 10.14 83.78 01/07/2019 22:55:44 -73.88, 10.10 83.78 1.37 6
10 01/07/2019 23:45:19 73.94, 177.65 96.28 01/07/2019 23:46:22 73.95, 177.61 96.29 1.66 63
11 01/10/2019 17:40:38 73.82, -90.92 95.78 01/10/2019 17:39:27 73.80, -91.00 95.78 3.07 71
12 01/10/2019 18:30:05 -73.91, 76.52 84.14 01/10/2019 18:30:07 -73.91, 76.60 84.13 2.51 2




NCC Satellite Simultaneous Nadir Overpasses (SNOs) Prediction Service
